GW2778 Weather Reports


time (UTC)temp
F
wind
direction
speed
knots
gust
knots
rain 1hr
in
rain 24hr
in
rain mn
in
humidity
%
barometer
mb
20260506051029 65 159 1.7 2.6 0.00 0.00 0.00 53 1005.8
20260506050527 65 186 0.9 1.7 0.00 0.00 0.00 54 1005.5
20260506045018 65 183 0.9 1.7 0.00 0.00 0.00 52 1005.6
20260506044516 65 173 1.7 1.7 0.00 0.00 0.00 52 1005.5
20260506044012 65 239 1.7 1.7 0.00 0.00 0.00 53 1005.5
20260506043509 65 55 1.7 2.6 0.00 0.00 0.00 53 1005.4
20260506043008 65 194 1.7 1.7 0.00 0.00 0.00 52 1005.6
20260506042506 65 189 1.7 1.7 0.00 0.00 0.00 51 1005.5
20260506042004 64 230 2.6 5.2 0.00 0.00 0.00 54 1005.5
20260506041502 64 177 1.7 1.7 0.00 0.00 0.00 53 1005.6
20260506040959 64 140 1.7 2.6 0.00 0.00 0.00 54 1005.5
20260506040456 65 166 0.0 0.9 0.00 0.00 0.00 53 1005.4
20260506035952 64 181 0.0 0.9 0.00 0.08 0.08 54 1005.7
20260506035449 62 308 0.0 0.0 0.00 0.08 0.08 57 1005.6
20260506034946 62 46 0.0 0.9 0.00 0.08 0.08 60 1005.6
20260506034443 62 97 0.9 0.9 0.00 0.08 0.08 58 1005.8
20260506033940 62 252 1.7 1.7 0.00 0.08 0.08 58 1005.7
20260506033438 62 19 0.0 0.0 0.00 0.08 0.08 60 1005.7
20260506032934 62 78 0.0 0.0 0.00 0.08 0.08 60 1005.5
20260506032432 63 79 0.0 0.0 0.00 0.08 0.08 58 1005.5
20260506031928 63 320 0.0 0.0 0.00 0.08 0.08 57 1005.5
20260506031425 63 356 0.0 0.0 0.00 0.08 0.08 55 1005.6
20260506030923 64 291 0.0 0.0 0.00 0.08 0.08 55 1005.7
20260506030421 64 24 0.0 0.0 0.00 0.08 0.08 56 1005.5
20260506025917 64 21 0.0 0.0 0.00 0.08 0.08 54 1005.6
20260506025415 64 35 0.9 0.9 0.00 0.08 0.08 56 1005.5
20260506024911 64 193 0.9 0.9 0.00 0.08 0.08 55 1005.6
20260506024408 64 46 0.0 0.9 0.00 0.08 0.08 55 1005.7
20260506023904 65 356 0.0 0.0 0.00 0.08 0.08 54 1005.6
20260506023401 64 24 0.0 0.9 0.00 0.08 0.08 55 1005.7
20260506022857 65 6 0.0 0.0 0.00 0.08 0.08 55 1005.6
20260506022356 65 82 0.0 0.0 0.00 0.08 0.08 53 1005.8
20260506021853 65 3 0.0 0.0 0.00 0.08 0.08 53 1005.6
20260506021350 66 251 0.0 0.0 0.00 0.08 0.08 52 1005.6
20260506020846 66 176 1.7 1.7 0.00 0.08 0.08 51 1005.5
20260506020345 65 40 0.0 0.0 0.00 0.08 0.08 54 1005.5
20260506015842 65 355 0.0 0.0 0.00 0.08 0.08 52 1005.6
20260506015339 66 39 0.0 0.0 0.00 0.08 0.08 50 1005.6
20260506014836 67 107 0.0 0.0 0.00 0.08 0.08 50 1005.6
20260506014333 68 166 0.0 0.9 0.00 0.08 0.08 50 1005.6
20260506013829 68 154 0.9 1.7 0.00 0.08 0.08 47 1005.6
20260506013327 68 206 0.0 0.0 0.00 0.08 0.08 48 1005.6
20260506012823 69 227 0.0 0.0 0.00 0.08 0.08 46 1005.4
20260506012321 70 156 0.0 0.0 0.00 0.08 0.08 45 1005.3
20260506011818 71 119 2.6 5.2 0.00 0.08 0.08 44 1005.4
20260506011314 70 172 0.0 0.0 0.00 0.08 0.08 45 1005.2
20260506010812 71 177 1.7 2.6 0.00 0.08 0.08 43 1005.2
20260506010309 71 225 0.9 1.7 0.00 0.08 0.08 44 1005.2
20260506005806 71 161 0.9 0.9 0.00 0.08 0.08 44 1005.0
20260506005305 71 190 2.6 2.6 0.00 0.08 0.08 42 1005.0
20260506004759 72 151 2.6 3.5 0.00 0.08 0.08 43 1005.0
20260506004257 72 120 0.9 0.9 0.00 0.08 0.08 43 1005.0
20260506003752 72 184 5.2 6.1 0.00 0.08 0.08 42 1005.1
20260506003249 72 187 2.6 2.6 0.00 0.08 0.08 42 1004.8
20260506002745 72 190 0.9 2.6 0.00 0.08 0.08 42 1004.6
20260506002241 72 172 4.3 5.2 0.00 0.08 0.08 43 1004.7
20260506001737 72 254 2.6 3.5 0.00 0.08 0.08 43 1004.6
20260506001235 72 238 4.3 5.2 0.00 0.08 0.08 43 1004.4
20260506000732 72 179 3.5 6.1 0.00 0.08 0.08 44 1004.7
20260506000229 72 217 7.0 7.8 0.00 0.08 0.08 43 1004.6
20260505235726 73 117 1.7 2.6 0.00 0.08 0.08 44 1004.6
20260505235224 73 132 3.5 5.2 0.00 0.08 0.08 44 1004.5
20260505234721 73 198 1.7 2.6 0.00 0.08 0.08 44 1004.4
20260505234218 73 136 4.3 6.1 0.00 0.08 0.08 44 1004.6
20260505233714 73 256 1.7 1.7 0.00 0.08 0.08 44 1004.1
20260505233213 73 215 2.6 3.5 0.00 0.08 0.08 44 1004.2
20260505232709 74 214 7.0 8.7 0.00 0.08 0.08 43 1004.4
20260505232207 73 98 2.6 3.5 0.00 0.08 0.08 44 1004.4
20260505231703 74 241 1.7 2.6 0.00 0.08 0.08 44 1004.3
20260505231203 74 142 4.3 6.1 0.00 0.08 0.08 43 1004.3
20260505230700 74 166 4.3 7.0 0.00 0.08 0.08 43 1004.2
20260505230156 74 261 8.7 11.3 0.00 0.08 0.08 43 1004.1
20260505225653 75 236 4.3 6.1 0.00 0.08 0.08 43 1004.2
20260505225149 75 200 3.5 6.1 0.00 0.08 0.08 43 1004.1
20260505224645 75 303 2.6 3.5 0.00 0.08 0.08 43 1004.3
20260505224143 75 168 5.2 7.8 0.00 0.08 0.08 43 1004.1
20260505223641 75 180 6.1 7.8 0.00 0.08 0.08 42 1004.2
20260505223136 75 172 6.1 7.8 0.00 0.08 0.08 43 1004.2
20260505222632 74 156 3.5 7.0 0.00 0.08 0.08 43 1004.1
20260505222129 74 229 4.3 5.2 0.00 0.08 0.08 43 1004.0
20260505221626 75 158 4.3 5.2 0.00 0.08 0.08 44 1004.3
20260505221122 75 181 5.2 6.1 0.00 0.08 0.08 44 1004.3
20260505220620 75 148 5.2 7.0 0.00 0.08 0.08 43 1004.1
20260505220117 75 226 3.5 5.2 0.00 0.08 0.08 43 1004.0
20260505215615 75 181 3.5 6.1 0.00 0.08 0.08 43 1003.9
20260505215113 75 269 9.6 12.2 0.00 0.08 0.08 43 1004.3
20260505214611 76 194 6.1 7.0 0.00 0.08 0.08 44 1004.0
20260505214108 76 191 3.5 5.2 0.00 0.08 0.08 44 1004.0
20260505213605 75 140 2.6 3.5 0.00 0.08 0.08 45 1004.0
20260505213101 75 172 3.5 5.2 0.00 0.08 0.08 44 1003.9
20260505212552 75 199 1.7 2.6 0.00 0.08 0.08 46 1004.1
20260505212050 75 204 6.1 7.0 0.00 0.08 0.08 44 1004.0
20260505211546 75 188 4.3 6.1 0.00 0.08 0.08 45 1003.9
20260505211043 75 207 7.8 9.6 0.00 0.08 0.08 44 1003.9
20260505210540 75 215 7.0 9.6 0.00 0.08 0.08 44 1004.1
20260505210037 75 228 3.5 5.2 0.00 0.08 0.08 44 1003.9
20260505205535 75 186 0.9 1.7 0.00 0.08 0.08 44 1003.9
20260505205032 76 235 4.3 7.0 0.00 0.08 0.08 43 1003.7
20260505204530 76 260 3.5 5.2 0.00 0.08 0.08 43 1003.7
20260505204027 75 190 5.2 7.8 0.00 0.08 0.08 43 1003.8
20260505203523 76 210 8.7 12.2 0.00 0.08 0.08 43 1004.1
20260505203021 76 234 3.5 6.1 0.00 0.08 0.08 45 1003.9
20260505202516 75 228 5.2 7.0 0.00 0.08 0.08 43 1004.0
20260505202012 76 239 4.3 7.8 0.00 0.08 0.08 43 1003.8
20260505201510 76 164 7.8 12.2 0.00 0.08 0.08 43 1003.9
20260505201007 77 264 4.3 7.0 0.00 0.08 0.08 43 1003.8
20260505200505 75 206 6.1 8.7 0.00 0.08 0.08 43 1004.2
20260505200001 77 218 6.1 8.7 0.00 0.08 0.08 43 1004.0
20260505195458 77 223 0.9 1.7 0.00 0.08 0.08 45 1003.9
20260505194955 77 2 2.6 3.5 0.00 0.08 0.08 46 1004.0
20260505194453 77 157 2.6 3.5 0.00 0.08 0.08 44 1004.0
20260505193952 77 163 11.3 20.0 0.00 0.08 0.08 42 1004.0
20260505193450 78 227 7.8 9.6 0.00 0.08 0.08 41 1003.8
20260505192947 77 188 4.3 6.1 0.00 0.08 0.08 42 1004.0
20260505192446 77 129 4.3 5.2 0.00 0.08 0.08 43 1004.1
20260505191943 78 182 7.0 8.7 0.00 0.08 0.08 42 1004.2
20260505191442 76 79 2.6 3.5 0.00 0.08 0.08 43 1004.1
20260505190938 76 164 4.3 11.3 0.00 0.08 0.08 43 1004.4
20260505190433 77 224 10.4 13.0 0.00 0.08 0.08 42 1004.4
20260505185929 78 144 7.8 11.3 0.00 0.08 0.08 44 1004.5
20260505185427 77 218 4.3 7.0 0.00 0.08 0.08 42 1004.4
20260505184923 75 168 3.5 5.2 0.00 0.08 0.08 44 1004.5
20260505184420 75 189 7.8 7.8 0.00 0.08 0.08 44 1004.9
20260505183916 75 219 6.1 7.8 0.00 0.08 0.08 44 1004.7
20260505183413 75 211 3.5 5.2 0.00 0.08 0.08 45 1004.8
20260505182910 75 234 2.6 3.5 0.00 0.08 0.08 45 1004.9
20260505182407 76 244 6.1 7.8 0.00 0.08 0.08 42 1004.8
20260505181903 77 348 3.5 5.2 0.00 0.08 0.08 42 1004.9
20260505181401 77 70 6.1 8.7 0.00 0.08 0.08 41 1004.9
20260505180857 77 143 4.3 5.2 0.00 0.08 0.08 41 1005.2
20260505180354 78 214 5.2 7.0 0.00 0.08 0.08 40 1005.4
20260505175850 78 68 4.3 6.1 0.00 0.08 0.08 39 1004.9
20260505175347 77 172 6.1 9.6 0.00 0.08 0.08 40 1005.0
20260505174843 77 153 12.2 15.6 0.00 0.08 0.08 41 1005.2
20260505174341 76 201 3.5 5.2 0.00 0.08 0.08 42 1005.2
20260505173836 76 171 4.3 7.0 0.00 0.08 0.08 40 1005.1
20260505173333 77 223 5.2 7.0 0.00 0.08 0.08 41 1005.0
20260505172831 76 97 7.0 9.6 0.00 0.08 0.08 41 1005.4
20260505172328 77 170 3.5 5.2 0.00 0.08 0.08 44 1005.2
20260505171827 74 259 7.0 9.6 0.00 0.08 0.08 45 1005.3
20260505171325 74 209 7.0 9.6 0.00 0.08 0.08 46 1005.4
20260505170821 74 177 5.2 7.0 0.00 0.08 0.08 47 1005.5
20260505170318 75 316 3.5 5.2 0.00 0.08 0.08 47 1005.3
20260505165814 76 277 2.6 5.2 0.00 0.08 0.08 46 1005.2
20260505165309 76 265 3.5 5.2 0.00 0.08 0.08 46 1005.3
20260505164805 75 223 4.3 6.1 0.00 0.08 0.08 47 1005.5
20260505164303 75 101 2.6 5.2 0.00 0.08 0.08 49 1005.6
20260505163801 75 241 7.0 7.8 0.00 0.08 0.08 49 1005.6
20260505163259 75 219 6.1 7.8 0.00 0.08 0.08 47 1005.8
20260505162756 75 209 4.3 6.1 0.00 0.08 0.08 47 1005.7
20260505162253 74 264 1.7 2.6 0.00 0.08 0.08 51 1005.5
20260505161750 74 228 1.7 1.7 0.00 0.08 0.08 52 1005.8
20260505161247 75 233 5.2 7.8 0.00 0.08 0.08 49 1005.7
20260505160744 74 276 8.7 9.6 0.00 0.08 0.08 50 1006.0
20260505160242 74 260 4.3 5.2 0.00 0.08 0.08 51 1006.0
20260505153221 74 292 0.9 0.9 0.00 0.08 0.08 54 1006.0
20260505152718 73 211 3.5 5.2 0.00 0.08 0.08 54 1006.4
20260505152214 72 316 1.7 2.6 0.00 0.08 0.08 56 1006.3
20260505151709 71 154 5.2 6.1 0.00 0.08 0.08 56 1006.5
20260505151207 70 161 4.3 6.1 0.00 0.08 0.08 57 1006.5
20260505150703 71 197 4.3 5.2 0.00 0.08 0.08 57 1006.5
20260505150201 70 205 1.7 2.6 0.00 0.08 0.08 59 1006.5
20260505140633 67 167 3.5 5.2 0.00 0.08 0.08 65 1006.5
20260505140131 67 176 2.6 3.5 0.00 0.08 0.08 65 1006.6
20260505124544 62 59 1.7 1.7 0.00 0.08 0.08 74 1006.6
20260505124040 61 178 2.6 2.6 0.00 0.08 0.08 74 1006.9
20260505123536 62 224 0.9 1.7 0.00 0.08 0.08 75 1006.7
20260505123033 62 158 1.7 1.7 0.00 0.08 0.08 74 1006.8
20260505122530 61 131 2.6 5.2 0.00 0.08 0.08 74 1006.7
20260505122027 62 176 1.7 1.7 0.00 0.08 0.08 73 1006.8
20260505121523 62 183 1.7 1.7 0.00 0.08 0.08 76 1006.7
20260505121020 62 357 0.0 0.0 0.00 0.08 0.08 74 1006.7
20260505120516 61 337 0.0 0.9 0.00 0.08 0.08 77 1006.4
20260505120012 61 127 0.9 0.9 0.00 0.08 0.08 75 1006.6
20260505115507 60 24 0.0 0.0 0.00 0.08 0.08 78 1006.6
20260505115005 60 189 1.7 2.6 0.00 0.08 0.08 77 1006.6
20260505114501 60 211 3.5 5.2 0.00 0.08 0.08 77 1006.8
20260505113958 59 283 0.9 1.7 0.00 0.08 0.08 78 1006.5
20260505113454 58 217 1.7 1.7 0.00 0.08 0.08 80 1006.7
20260505112950 57 214 2.6 2.6 0.00 0.08 0.08 81 1006.6
20260505112447 57 213 3.5 3.5 0.00 0.08 0.08 83 1006.7
20260505111944 56 315 0.0 0.9 0.00 0.08 0.08 84 1006.4
20260505111438 54 304 0.9 0.9 0.00 0.08 0.08 90 1006.4
20260505110935 53 348 0.0 0.0 0.00 0.08 0.08 97 1006.4
20260505110432 52 349 0.0 0.0 0.00 0.08 0.08 99 1006.3
20260505101903 49 354 0.0 0.0 0.00 0.08 0.08 99 1005.9
20260505101357 50 262 0.9 0.9 0.00 0.08 0.08 99 1006.0
20260505100854 49 332 0.0 0.0 0.00 0.08 0.08 99 1006.0
20260505100350 49 332 0.9 1.7 0.00 0.08 0.08 99 1006.0
20260505095846 49 83 0.0 0.0 0.00 0.08 0.08 99 1005.9
20260505095344 50 5 0.0 0.0 0.00 0.08 0.08 99 1006.0
20260505094839 50 317 0.0 0.0 0.00 0.08 0.08 99 1006.0
20260505094336 50 346 0.0 0.0 0.00 0.08 0.08 99 1005.7
20260505093832 50 338 0.0 0.0 0.00 0.08 0.08 99 1005.9
20260505093330 50 334 0.0 0.0 0.00 0.08 0.08 99 1005.7
20260505092826 51 337 0.0 0.0 0.00 0.08 0.08 99 1005.9
20260505092325 51 332 0.0 0.0 0.00 0.08 0.08 99 1005.8
20260505091822 51 304 0.0 0.0 0.00 0.08 0.08 99 1005.7
20260505091320 51 332 0.0 0.0 0.00 0.08 0.08 99 1005.7
20260505090818 51 292 0.0 0.0 0.00 0.08 0.08 99 1005.5
20260505090316 51 335 0.0 0.0 0.00 0.08 0.08 99 1005.7
20260505085812 51 287 0.0 0.0 0.00 0.08 0.08 99 1005.5
20260505085310 52 336 0.0 0.0 0.00 0.08 0.08 99 1005.6
20260505084808 52 343 0.0 0.0 0.00 0.08 0.08 99 1005.7
20260505084307 52 330 0.0 0.0 0.00 0.08 0.08 99 1005.7
20260505083803 52 329 0.0 0.0 0.00 0.08 0.08 98 1005.6
20260505083300 53 10 0.0 0.9 0.00 0.08 0.08 98 1005.6
20260505082756 53 88 0.0 0.9 0.00 0.08 0.08 98 1005.6
20260505082253 53 163 0.9 0.9 0.00 0.08 0.08 98 1005.4
20260505081749 53 115 0.9 0.9 0.00 0.08 0.08 98 1005.4
20260505081247 53 80 0.9 1.7 0.00 0.08 0.08 98 1005.5
20260505080743 54 60 0.9 0.9 0.00 0.08 0.08 98 1005.6
20260505080239 54 209 1.7 1.7 0.00 0.08 0.08 96 1005.5
20260505075735 55 251 0.9 0.9 0.00 0.08 0.08 94 1005.6
20260505075232 54 11 0.0 0.0 0.05 0.08 0.08 94 1005.4
20260505074729 55 131 1.7 1.7 0.24 0.08 0.08 92 1005.6
20260505074227 56 306 0.9 1.7 0.24 0.07 0.07 89 1006.2
20260505073724 57 291 1.7 2.6 0.24 0.04 0.04 84 1006.0
20260505073222 58 270 1.7 2.6 0.19 0.03 0.03 80 1006.0
20260505072718 59 283 2.6 3.5 0.00 0.00 0.00 72 1005.7
20260505072214 59 260 1.7 1.7 0.00 0.00 0.00 70 1005.3
20260505071709 58 136 1.7 1.7 0.00 0.00 0.00 71 1005.1
20260505071207 58 142 2.6 2.6 0.00 0.00 0.00 72 1005.4
20260505070705 58 250 2.6 3.5 0.00 0.00 0.00 70 1005.2
20260505070201 58 60 0.0 0.9 0.00 0.00 0.00 70 1005.3
20260505065656 58 325 0.9 0.9 0.00 0.00 0.00 70 1005.3
20260505065154 58 249 0.9 1.7 0.00 0.00 0.00 70 1005.3
20260505064650 58 324 0.0 0.0 0.00 0.00 0.00 70 1005.3
20260505064149 58 322 0.0 0.0 0.00 0.00 0.00 70 1005.6
20260505063646 58 296 0.9 0.9 0.00 0.00 0.00 70 1005.5
20260505063142 57 337 0.0 0.9 0.00 0.00 0.00 71 1005.7
20260505062638 56 311 0.0 0.0 0.00 0.00 0.00 73 1005.6
20260505062136 55 321 0.0 0.0 0.00 0.00 0.00 73 1005.6
20260505061632 55 4 0.0 0.0 0.00 0.00 0.00 74 1005.7
20260505061131 55 351 0.0 0.0 0.00 0.00 0.00 74 1005.4
20260505060628 56 9 0.0 0.0 0.00 0.00 0.00 73 1005.5
20260505060125 56 7 0.0 0.9 0.00 0.00 0.00 72 1005.6